Year,Month,Day,Hour,Minute,Value (Times are PST for temperature in C)
2020,06,01,00,00,10.40
2020,06,01,00,01,10.40
2020,06,01,00,02,10.30
2020,06,01,00,03,10.30
2020,06,01,00,04,10.30
2020,06,01,00,05,10.30
2020,06,01,00,06,10.20
2020,06,01,00,07,10.20
2020,06,01,00,08,10.20
2020,06,01,00,09,10.20
2020,06,01,00,10,10.20
2020,06,01,00,11,10.20
2020,06,01,00,12,10.20
2020,06,01,00,13,10.20
2020,06,01,00,14,10.10
2020,06,01,00,15,10.10
2020,06,01,00,16,10.10
2020,06,01,00,17,10.10
2020,06,01,00,18,10.10
2020,06,01,00,19,10.10
2020,06,01,00,20,10.10
2020,06,01,00,21,10.10
2020,06,01,00,22,10.10
2020,06,01,00,23,10.10
2020,06,01,00,24,10.10
2020,06,01,00,25,10.10
2020,06,01,00,26,10.10
2020,06,01,00,27,10.10
2020,06,01,00,28,10.10
2020,06,01,00,29,10.10
2020,06,01,00,30,10.00
2020,06,01,00,31,9.90
2020,06,01,00,32,9.90
2020,06,01,00,33,9.90
2020,06,01,00,34,9.90
2020,06,01,00,35,9.90
2020,06,01,00,36,9.90
2020,06,01,00,37,9.90
2020,06,01,00,38,9.90
2020,06,01,00,39,9.90
2020,06,01,00,40,9.80
2020,06,01,00,41,9.80
2020,06,01,00,42,9.80
2020,06,01,00,43,9.80
2020,06,01,00,44,9.80
2020,06,01,00,45,9.70
2020,06,01,00,46,9.70
2020,06,01,00,47,9.70
2020,06,01,00,48,9.70
2020,06,01,00,49,9.70
2020,06,01,00,50,9.70
2020,06,01,00,51,9.70
2020,06,01,00,52,9.70
2020,06,01,00,53,9.70
2020,06,01,00,54,9.70
2020,06,01,00,55,9.70
2020,06,01,00,56,9.70
2020,06,01,00,57,9.70
2020,06,01,00,58,9.70
2020,06,01,00,59,9.60
2020,06,01,01,00,9.60
2020,06,01,01,01,9.60
2020,06,01,01,02,9.60
2020,06,01,01,03,9.60
2020,06,01,01,04,9.50
2020,06,01,01,05,9.50
2020,06,01,01,06,9.50
2020,06,01,01,07,9.50
2020,06,01,01,08,9.50
2020,06,01,01,09,9.40
2020,06,01,01,10,9.40
2020,06,01,01,11,9.40
2020,06,01,01,12,9.40
2020,06,01,01,13,9.40
2020,06,01,01,14,9.40
2020,06,01,01,15,9.40
2020,06,01,01,16,9.40
2020,06,01,01,17,9.30
2020,06,01,01,18,9.30
2020,06,01,01,19,9.30
2020,06,01,01,20,9.30
2020,06,01,01,21,9.30
2020,06,01,01,22,9.30
2020,06,01,01,23,9.30
2020,06,01,01,24,9.30
2020,06,01,01,25,9.20
2020,06,01,01,26,9.20
2020,06,01,01,27,9.20
2020,06,01,01,28,9.20
2020,06,01,01,29,9.20
2020,06,01,01,30,9.20
2020,06,01,01,31,9.20
2020,06,01,01,32,9.20
2020,06,01,01,33,9.20
2020,06,01,01,34,9.20
2020,06,01,01,35,9.20
2020,06,01,01,36,9.20
2020,06,01,01,37,9.20
2020,06,01,01,38,9.20
2020,06,01,01,39,9.20
2020,06,01,01,40,9.10
2020,06,01,01,41,9.10
2020,06,01,01,42,9.10
2020,06,01,01,43,9.10
2020,06,01,01,44,9.10
2020,06,01,01,45,9.00
2020,06,01,01,46,9.00
2020,06,01,01,47,9.00
2020,06,01,01,48,9.00
2020,06,01,01,49,9.00
2020,06,01,01,50,9.00
2020,06,01,01,51,8.90
2020,06,01,01,52,8.90
2020,06,01,01,53,8.90
2020,06,01,01,54,8.90
2020,06,01,01,55,8.90
2020,06,01,01,56,8.80
2020,06,01,01,57,8.80
2020,06,01,01,58,8.80
2020,06,01,01,59,8.80
2020,06,01,02,00,8.80
2020,06,01,02,01,8.80
2020,06,01,02,02,8.80
2020,06,01,02,03,8.80
2020,06,01,02,04,8.80
2020,06,01,02,05,8.80
2020,06,01,02,06,8.80
2020,06,01,02,07,8.80
2020,06,01,02,08,8.80
2020,06,01,02,09,8.80
2020,06,01,02,10,8.80
2020,06,01,02,11,8.80
2020,06,01,02,12,8.80
2020,06,01,02,13,8.80
2020,06,01,02,14,8.70
2020,06,01,02,15,8.70
2020,06,01,02,16,8.70
2020,06,01,02,17,8.70
2020,06,01,02,18,8.70
2020,06,01,02,19,8.70
2020,06,01,02,20,8.70
2020,06,01,02,21,8.70
2020,06,01,02,22,8.70
2020,06,01,02,23,8.70
2020,06,01,02,24,8.60
2020,06,01,02,25,8.60
2020,06,01,02,26,8.60
2020,06,01,02,27,8.60
2020,06,01,02,28,8.60
2020,06,01,02,29,8.50
2020,06,01,02,30,8.50
2020,06,01,02,31,8.50
2020,06,01,02,32,8.50
2020,06,01,02,33,8.50
2020,06,01,02,34,8.50
2020,06,01,02,35,8.50
2020,06,01,02,36,8.50
2020,06,01,02,37,8.50
2020,06,01,02,38,8.50
2020,06,01,02,39,8.50
2020,06,01,02,40,8.50
2020,06,01,02,41,8.50
2020,06,01,02,42,8.50
2020,06,01,02,43,8.50
2020,06,01,02,44,8.50
2020,06,01,02,45,8.50
2020,06,01,02,46,8.50
2020,06,01,02,47,8.50
2020,06,01,02,48,8.50
2020,06,01,02,49,8.50
2020,06,01,02,50,8.50
2020,06,01,02,51,8.40
2020,06,01,02,52,8.40
2020,06,01,02,53,8.40
2020,06,01,02,54,8.40
2020,06,01,02,55,8.40
2020,06,01,02,56,8.40
2020,06,01,02,57,8.40
2020,06,01,02,58,8.30
2020,06,01,02,59,8.30
2020,06,01,03,00,8.30
2020,06,01,03,01,8.30
2020,06,01,03,02,8.30
2020,06,01,03,03,8.20
2020,06,01,03,04,8.20
2020,06,01,03,05,8.20
2020,06,01,03,06,8.20
2020,06,01,03,07,8.20
2020,06,01,03,08,8.20
2020,06,01,03,09,8.20
2020,06,01,03,10,8.20
2020,06,01,03,11,8.20
2020,06,01,03,12,8.20
2020,06,01,03,13,8.20
2020,06,01,03,14,8.20
2020,06,01,03,15,8.20
2020,06,01,03,16,8.20
2020,06,01,03,17,8.20
2020,06,01,03,18,8.20
2020,06,01,03,19,8.20
2020,06,01,03,20,8.20
2020,06,01,03,21,8.20
2020,06,01,03,22,8.20
2020,06,01,03,23,8.20
2020,06,01,03,24,8.20
2020,06,01,03,25,8.20
2020,06,01,03,26,8.20
2020,06,01,03,27,8.10
2020,06,01,03,28,8.10
2020,06,01,03,29,8.10
2020,06,01,03,30,8.10
2020,06,01,03,31,8.10
2020,06,01,03,32,8.10
2020,06,01,03,33,8.10
2020,06,01,03,34,8.00
2020,06,01,03,35,8.00
2020,06,01,03,36,8.00
2020,06,01,03,37,8.00
2020,06,01,03,38,8.00
2020,06,01,03,39,8.00
2020,06,01,03,40,8.00
2020,06,01,03,41,8.00
2020,06,01,03,42,8.00
2020,06,01,03,43,8.00
2020,06,01,03,44,8.00
2020,06,01,03,45,7.90
2020,06,01,03,46,7.90
2020,06,01,03,47,7.90
2020,06,01,03,48,7.90
2020,06,01,03,49,7.90
2020,06,01,03,50,7.80
2020,06,01,03,51,7.80
2020,06,01,03,52,7.80
2020,06,01,03,53,7.80
2020,06,01,03,54,7.80
2020,06,01,03,55,7.80
2020,06,01,03,56,7.80
2020,06,01,03,57,7.80
2020,06,01,03,58,7.70
2020,06,01,03,59,7.70
2020,06,01,04,00,7.70
2020,06,01,04,01,7.70
2020,06,01,04,02,7.70
2020,06,01,04,03,7.70
2020,06,01,04,04,7.70
2020,06,01,04,05,7.70
2020,06,01,04,06,7.70
2020,06,01,04,07,7.70
2020,06,01,04,08,7.70
2020,06,01,04,09,7.70
2020,06,01,04,10,7.70
2020,06,01,04,11,7.60
2020,06,01,04,12,7.60
2020,06,01,04,13,7.60
2020,06,01,04,14,7.60
2020,06,01,04,15,7.60
2020,06,01,04,16,7.60
2020,06,01,04,17,7.60
2020,06,01,04,18,7.60
2020,06,01,04,19,7.60
2020,06,01,04,20,7.60
2020,06,01,04,21,7.60
2020,06,01,04,22,7.50
2020,06,01,04,23,7.50
2020,06,01,04,24,7.50
2020,06,01,04,25,7.50
2020,06,01,04,26,7.50
2020,06,01,04,27,7.50
2020,06,01,04,28,7.50
2020,06,01,04,29,7.50
2020,06,01,04,30,7.40
2020,06,01,04,31,7.40
2020,06,01,04,32,7.40
2020,06,01,04,33,7.40
2020,06,01,04,34,7.40
2020,06,01,04,35,7.40
2020,06,01,04,36,7.40
2020,06,01,04,37,7.40
2020,06,01,04,38,7.40
2020,06,01,04,39,7.40
2020,06,01,04,40,7.40
2020,06,01,04,41,7.40
2020,06,01,04,42,7.40
2020,06,01,04,43,7.40
2020,06,01,04,44,7.40
2020,06,01,04,45,7.30
2020,06,01,04,46,7.30
2020,06,01,04,47,7.30
2020,06,01,04,48,7.30
2020,06,01,04,49,7.30
2020,06,01,04,50,7.30
2020,06,01,04,51,7.30
2020,06,01,04,52,7.30
2020,06,01,04,53,7.30
2020,06,01,04,54,7.30
2020,06,01,04,55,7.30
2020,06,01,04,56,7.30
2020,06,01,04,57,7.30
2020,06,01,04,58,7.30
2020,06,01,04,59,7.30
2020,06,01,05,00,7.30
2020,06,01,05,01,7.30
2020,06,01,05,02,7.30
2020,06,01,05,03,7.30
2020,06,01,05,04,7.30
2020,06,01,05,05,7.30
2020,06,01,05,06,7.30
2020,06,01,05,07,7.30
2020,06,01,05,08,7.30
2020,06,01,05,09,7.30
2020,06,01,05,10,7.20
2020,06,01,05,11,7.20
2020,06,01,05,12,7.20
2020,06,01,05,13,7.20
2020,06,01,05,14,7.20
2020,06,01,05,15,7.20
2020,06,01,05,16,7.20
2020,06,01,05,17,7.20
2020,06,01,05,18,7.20
2020,06,01,05,19,7.20
2020,06,01,05,20,7.20
2020,06,01,05,21,7.20
2020,06,01,05,22,7.20
2020,06,01,05,23,7.20
2020,06,01,05,24,7.10
2020,06,01,05,25,7.10
2020,06,01,05,26,7.10
2020,06,01,05,27,7.10
2020,06,01,05,28,7.10
2020,06,01,05,29,7.10
2020,06,01,05,30,7.10
2020,06,01,05,31,7.20
2020,06,01,05,32,7.20
2020,06,01,05,33,7.20
2020,06,01,05,34,7.20
2020,06,01,05,35,7.20
2020,06,01,05,36,7.20
2020,06,01,05,37,7.20
2020,06,01,05,38,7.30
2020,06,01,05,39,7.30
2020,06,01,05,40,7.30
2020,06,01,05,41,7.30
2020,06,01,05,42,7.30
2020,06,01,05,43,7.30
2020,06,01,05,44,7.30
2020,06,01,05,45,7.30
2020,06,01,05,46,7.30
2020,06,01,05,47,7.30
2020,06,01,05,48,7.30
2020,06,01,05,49,7.30
2020,06,01,05,50,7.30
2020,06,01,05,51,7.30
2020,06,01,05,52,7.30
2020,06,01,05,53,7.30
2020,06,01,05,54,7.30
2020,06,01,05,55,7.30
2020,06,01,05,56,7.30
2020,06,01,05,57,7.30
2020,06,01,05,58,7.30
2020,06,01,05,59,7.30
2020,06,01,06,00,7.30
2020,06,01,06,01,7.30
2020,06,01,06,02,7.30
2020,06,01,06,03,7.30
2020,06,01,06,04,7.30
2020,06,01,06,05,7.30
2020,06,01,06,06,7.30
2020,06,01,06,07,7.30
2020,06,01,06,08,7.30
2020,06,01,06,09,7.30
2020,06,01,06,10,7.30
2020,06,01,06,11,7.30
2020,06,01,06,12,7.40
2020,06,01,06,13,7.40
2020,06,01,06,14,7.40
2020,06,01,06,15,7.40
2020,06,01,06,16,7.50
2020,06,01,06,17,7.50
2020,06,01,06,18,7.50
2020,06,01,06,19,7.60
2020,06,01,06,20,7.60
2020,06,01,06,21,7.60
2020,06,01,06,22,7.70
2020,06,01,06,23,7.70
2020,06,01,06,24,7.80
2020,06,01,06,25,7.80
2020,06,01,06,26,7.80
2020,06,01,06,27,7.90
2020,06,01,06,28,7.90
2020,06,01,06,29,8.00
2020,06,01,06,30,8.00
2020,06,01,06,31,8.10
2020,06,01,06,32,8.10
2020,06,01,06,33,8.20
2020,06,01,06,34,8.20
2020,06,01,06,35,8.20
2020,06,01,06,36,8.20
2020,06,01,06,37,8.20
2020,06,01,06,38,8.30
2020,06,01,06,39,8.30
2020,06,01,06,40,8.40
2020,06,01,06,41,8.40
2020,06,01,06,42,8.40
2020,06,01,06,43,8.50
2020,06,01,06,44,8.50
2020,06,01,06,45,8.50
2020,06,01,06,46,8.60
2020,06,01,06,47,8.60
2020,06,01,06,48,8.70
2020,06,01,06,49,8.70
2020,06,01,06,50,8.70
2020,06,01,06,51,8.70
2020,06,01,06,52,8.70
2020,06,01,06,53,8.80
2020,06,01,06,54,8.80
2020,06,01,06,55,8.90
2020,06,01,06,56,8.90
2020,06,01,06,57,9.00
2020,06,01,06,58,9.00
2020,06,01,06,59,9.10
2020,06,01,07,00,9.10
2020,06,01,07,01,9.20
2020,06,01,07,02,9.20
2020,06,01,07,03,9.20
2020,06,01,07,04,9.20
2020,06,01,07,05,9.30
2020,06,01,07,06,9.30
2020,06,01,07,07,9.40
2020,06,01,07,08,9.40
2020,06,01,07,09,9.40
2020,06,01,07,10,9.50
2020,06,01,07,11,9.50
2020,06,01,07,12,9.60
2020,06,01,07,13,9.70
2020,06,01,07,14,9.70
2020,06,01,07,15,9.80
2020,06,01,07,16,9.90
2020,06,01,07,17,9.90
2020,06,01,07,18,9.90
2020,06,01,07,19,10.00
2020,06,01,07,20,10.10
2020,06,01,07,21,10.10
2020,06,01,07,22,10.10
2020,06,01,07,23,10.20
2020,06,01,07,24,10.30
2020,06,01,07,25,10.40
2020,06,01,07,26,10.50
2020,06,01,07,27,10.60
2020,06,01,07,28,10.60
2020,06,01,07,29,10.70
2020,06,01,07,30,10.80
2020,06,01,07,31,10.80
2020,06,01,07,32,10.90
2020,06,01,07,33,10.90
2020,06,01,07,34,10.90
2020,06,01,07,35,11.00
2020,06,01,07,36,11.10
2020,06,01,07,37,11.20
2020,06,01,07,38,11.30
2020,06,01,07,39,11.40
2020,06,01,07,40,11.40
2020,06,01,07,41,11.40
2020,06,01,07,42,11.60
2020,06,01,07,43,11.60
2020,06,01,07,44,11.70
2020,06,01,07,45,11.80
2020,06,01,07,46,11.80
2020,06,01,07,47,11.80
2020,06,01,07,48,11.80
2020,06,01,07,49,11.80
2020,06,01,07,50,11.80
2020,06,01,07,51,11.80
2020,06,01,07,52,11.70
2020,06,01,07,53,11.70
2020,06,01,07,54,11.70
2020,06,01,07,55,11.70
2020,06,01,07,56,11.70
2020,06,01,07,57,11.70
2020,06,01,07,58,11.70
2020,06,01,07,59,11.80
2020,06,01,08,00,11.80
2020,06,01,08,01,11.80
2020,06,01,08,02,11.90
2020,06,01,08,03,12.00
2020,06,01,08,04,12.10
2020,06,01,08,05,12.20
2020,06,01,08,06,12.30
2020,06,01,08,07,12.40
2020,06,01,08,08,12.50
2020,06,01,08,09,12.70
2020,06,01,08,10,12.80
2020,06,01,08,11,12.80
2020,06,01,08,12,12.80
2020,06,01,08,13,12.90
2020,06,01,08,14,12.90
2020,06,01,08,15,13.00
2020,06,01,08,16,13.00
2020,06,01,08,17,13.00
2020,06,01,08,18,13.10
2020,06,01,08,19,13.10
2020,06,01,08,20,13.20
2020,06,01,08,21,13.20
2020,06,01,08,22,13.20
2020,06,01,08,23,13.20
2020,06,01,08,24,13.10
2020,06,01,08,25,13.10
2020,06,01,08,26,13.00
2020,06,01,08,27,13.00
2020,06,01,08,28,12.90
2020,06,01,08,29,12.90
2020,06,01,08,30,12.90
2020,06,01,08,31,13.00
2020,06,01,08,32,13.10
2020,06,01,08,33,13.10
2020,06,01,08,34,13.20
2020,06,01,08,35,13.20
2020,06,01,08,36,13.30
2020,06,01,08,37,13.30
2020,06,01,08,38,13.30
2020,06,01,08,39,13.30
2020,06,01,08,40,13.30
2020,06,01,08,41,13.30
2020,06,01,08,42,13.30
2020,06,01,08,43,13.30
2020,06,01,08,44,13.30
2020,06,01,08,45,13.30
2020,06,01,08,46,13.40
2020,06,01,08,47,13.40
2020,06,01,08,48,13.50
2020,06,01,08,49,13.50
2020,06,01,08,50,13.60
2020,06,01,08,51,13.60
2020,06,01,08,52,13.70
2020,06,01,08,53,13.70
2020,06,01,08,54,13.60
2020,06,01,08,55,13.60
2020,06,01,08,56,13.60
2020,06,01,08,57,13.60
2020,06,01,08,58,13.50
2020,06,01,08,59,13.50
2020,06,01,09,00,13.60
2020,06,01,09,01,13.50
2020,06,01,09,02,13.50
2020,06,01,09,03,13.50
2020,06,01,09,04,13.50
2020,06,01,09,05,13.50
2020,06,01,09,06,13.50
2020,06,01,09,07,13.50
2020,06,01,09,08,13.50
2020,06,01,09,09,13.50
2020,06,01,09,10,13.50
2020,06,01,09,11,13.50
2020,06,01,09,12,13.50
2020,06,01,09,13,13.50
2020,06,01,09,14,13.50
2020,06,01,09,15,13.50
2020,06,01,09,16,13.50
2020,06,01,09,17,13.50
2020,06,01,09,18,13.50
2020,06,01,09,19,13.50
2020,06,01,09,20,13.50
2020,06,01,09,21,13.50
2020,06,01,09,22,13.50
2020,06,01,09,23,13.50
2020,06,01,09,24,13.60
2020,06,01,09,25,13.60
2020,06,01,09,26,13.60
2020,06,01,09,27,13.60
2020,06,01,09,28,13.60
2020,06,01,09,29,13.60
2020,06,01,09,30,13.70
2020,06,01,09,31,13.70
2020,06,01,09,32,13.80
2020,06,01,09,33,13.80
2020,06,01,09,34,13.80
2020,06,01,09,35,13.90
2020,06,01,09,36,13.90
2020,06,01,09,37,14.00
2020,06,01,09,38,14.10
2020,06,01,09,39,14.20
2020,06,01,09,40,14.20
2020,06,01,09,41,14.40
2020,06,01,09,42,14.50
2020,06,01,09,43,14.50
2020,06,01,09,44,14.50
2020,06,01,09,45,14.60
2020,06,01,09,46,14.60
2020,06,01,09,47,14.60
2020,06,01,09,48,14.50
2020,06,01,09,49,14.40
2020,06,01,09,50,14.30
2020,06,01,09,51,14.20
2020,06,01,09,52,14.30
2020,06,01,09,53,14.40
2020,06,01,09,54,14.50
2020,06,01,09,55,14.50
2020,06,01,09,56,14.50
2020,06,01,09,57,14.50
2020,06,01,09,58,14.50
2020,06,01,09,59,14.50
2020,06,01,10,00,14.50
2020,06,01,10,01,14.50
2020,06,01,10,02,14.50
2020,06,01,10,03,14.50
2020,06,01,10,04,14.40
2020,06,01,10,05,14.30
2020,06,01,10,06,14.10
2020,06,01,10,07,14.00
2020,06,01,10,08,14.00
2020,06,01,10,09,14.00
2020,06,01,10,10,14.00
2020,06,01,10,11,14.00
2020,06,01,10,12,14.00
2020,06,01,10,13,14.00
2020,06,01,10,14,14.00
2020,06,01,10,15,14.00
2020,06,01,10,16,14.00
2020,06,01,10,17,14.10
2020,06,01,10,18,14.10
2020,06,01,10,19,14.20
2020,06,01,10,20,14.30
2020,06,01,10,21,14.40
2020,06,01,10,22,14.50
2020,06,01,10,23,14.50
2020,06,01,10,24,14.50
2020,06,01,10,25,14.50
2020,06,01,10,26,14.40
2020,06,01,10,27,14.40
2020,06,01,10,28,14.30
2020,06,01,10,29,14.30
2020,06,01,10,30,14.40
2020,06,01,10,31,14.50
2020,06,01,10,32,14.50
2020,06,01,10,33,14.50
2020,06,01,10,34,14.50
2020,06,01,10,35,14.60
2020,06,01,10,36,14.60
2020,06,01,10,37,14.60
2020,06,01,10,38,14.80
2020,06,01,10,39,14.90
2020,06,01,10,40,14.90
2020,06,01,10,41,14.80
2020,06,01,10,42,14.70
2020,06,01,10,43,14.60
2020,06,01,10,44,14.60
2020,06,01,10,45,14.50
2020,06,01,10,46,14.50
2020,06,01,10,47,14.50
2020,06,01,10,48,14.40
2020,06,01,10,49,14.50
2020,06,01,10,50,14.60
2020,06,01,10,51,14.60
2020,06,01,10,52,14.70
2020,06,01,10,53,14.80
2020,06,01,10,54,14.80
2020,06,01,10,55,14.90
2020,06,01,10,56,14.90
2020,06,01,10,57,15.00
2020,06,01,10,58,15.00
2020,06,01,10,59,15.10
2020,06,01,11,00,15.10
2020,06,01,11,01,15.10
2020,06,01,11,02,15.10
2020,06,01,11,03,15.10
2020,06,01,11,04,15.10
2020,06,01,11,05,15.10
2020,06,01,11,06,15.20
2020,06,01,11,07,15.20
2020,06,01,11,08,15.20
2020,06,01,11,09,15.30
2020,06,01,11,10,15.30
2020,06,01,11,11,15.20
2020,06,01,11,12,15.10
2020,06,01,11,13,15.00
2020,06,01,11,14,14.90
2020,06,01,11,15,14.90
2020,06,01,11,16,14.90
2020,06,01,11,17,15.00
2020,06,01,11,18,15.00
2020,06,01,11,19,15.00
2020,06,01,11,20,14.90
2020,06,01,11,21,14.90
2020,06,01,11,22,14.80
2020,06,01,11,23,14.80
2020,06,01,11,24,14.80
2020,06,01,11,25,14.80
2020,06,01,11,26,14.90
2020,06,01,11,27,14.90
2020,06,01,11,28,15.00
2020,06,01,11,29,15.00
2020,06,01,11,30,15.20
2020,06,01,11,31,15.20
2020,06,01,11,32,15.30
2020,06,01,11,33,15.30
2020,06,01,11,34,15.30
2020,06,01,11,35,15.30
2020,06,01,11,36,15.30
2020,06,01,11,37,15.30
2020,06,01,11,38,15.30
2020,06,01,11,39,15.40
2020,06,01,11,40,15.50
2020,06,01,11,41,15.50
2020,06,01,11,42,15.60
2020,06,01,11,43,15.60
2020,06,01,11,44,15.80
2020,06,01,11,45,15.80
2020,06,01,11,46,15.90
2020,06,01,11,47,16.00
2020,06,01,11,48,16.10
2020,06,01,11,49,16.20
2020,06,01,11,50,16.10
2020,06,01,11,51,16.20
2020,06,01,11,52,16.10
2020,06,01,11,53,16.10
2020,06,01,11,54,16.10
2020,06,01,11,55,16.10
2020,06,01,11,56,16.20
2020,06,01,11,57,16.10
2020,06,01,11,58,16.00
2020,06,01,11,59,15.90
2020,06,01,12,00,16.00
2020,06,01,12,01,16.10
2020,06,01,12,02,16.10
2020,06,01,12,03,16.10
2020,06,01,12,04,15.90
2020,06,01,12,05,15.70
2020,06,01,12,06,15.60
2020,06,01,12,07,15.60
2020,06,01,12,08,15.60
2020,06,01,12,09,15.60
2020,06,01,12,10,15.50
2020,06,01,12,11,15.40
2020,06,01,12,12,15.30
2020,06,01,12,13,15.30
2020,06,01,12,14,15.30
2020,06,01,12,15,15.30
2020,06,01,12,16,15.30
2020,06,01,12,17,15.20
2020,06,01,12,18,15.30
2020,06,01,12,19,15.30
2020,06,01,12,20,15.30
2020,06,01,12,21,15.40
2020,06,01,12,22,15.40
2020,06,01,12,23,15.40
2020,06,01,12,24,15.40
2020,06,01,12,25,15.50
2020,06,01,12,26,15.50
2020,06,01,12,27,15.50
2020,06,01,12,28,15.50
2020,06,01,12,29,15.40
2020,06,01,12,30,15.30
2020,06,01,12,31,15.30
2020,06,01,12,32,15.40
2020,06,01,12,33,15.40
2020,06,01,12,34,15.50
2020,06,01,12,35,15.60
2020,06,01,12,36,15.70
2020,06,01,12,37,15.60
2020,06,01,12,38,15.60
2020,06,01,12,39,15.60
2020,06,01,12,40,15.50
2020,06,01,12,41,15.40
2020,06,01,12,42,15.20
2020,06,01,12,43,15.10
2020,06,01,12,44,15.10
2020,06,01,12,45,15.20
2020,06,01,12,46,15.20
2020,06,01,12,47,15.20
2020,06,01,12,48,15.30
2020,06,01,12,49,15.60
2020,06,01,12,50,15.70
2020,06,01,12,51,15.70
2020,06,01,12,52,15.60
2020,06,01,12,53,15.50
2020,06,01,12,54,15.50
2020,06,01,12,55,15.50
2020,06,01,12,56,15.50
2020,06,01,12,57,15.40
2020,06,01,12,58,15.30
2020,06,01,12,59,15.20
2020,06,01,13,00,15.20
2020,06,01,13,01,15.30
2020,06,01,13,02,15.40
2020,06,01,13,03,15.50
2020,06,01,13,04,15.50
2020,06,01,13,05,15.60
2020,06,01,13,06,15.60
2020,06,01,13,07,15.60
2020,06,01,13,08,15.60
2020,06,01,13,09,15.60
2020,06,01,13,10,15.60
2020,06,01,13,11,15.60
2020,06,01,13,12,15.50
2020,06,01,13,13,15.60
2020,06,01,13,14,15.60
2020,06,01,13,15,15.50
2020,06,01,13,16,15.30
2020,06,01,13,17,15.30
2020,06,01,13,18,15.30
2020,06,01,13,19,15.30
2020,06,01,13,20,15.40
2020,06,01,13,21,15.50
2020,06,01,13,22,15.60
2020,06,01,13,23,15.60
2020,06,01,13,24,15.70
2020,06,01,13,25,15.80
2020,06,01,13,26,15.80
2020,06,01,13,27,15.90
2020,06,01,13,28,15.90
2020,06,01,13,29,16.00
2020,06,01,13,30,16.10
2020,06,01,13,31,16.00
2020,06,01,13,32,16.00
2020,06,01,13,33,16.00
2020,06,01,13,34,16.10
2020,06,01,13,35,16.10
2020,06,01,13,36,16.10
2020,06,01,13,37,16.00
2020,06,01,13,38,15.90
2020,06,01,13,39,16.00
2020,06,01,13,40,16.10
2020,06,01,13,41,16.00
2020,06,01,13,42,15.90
2020,06,01,13,43,16.00
2020,06,01,13,44,16.10
2020,06,01,13,45,16.20
2020,06,01,13,46,16.20
2020,06,01,13,47,16.20
2020,06,01,13,48,16.20
2020,06,01,13,49,16.30
2020,06,01,13,50,16.30
2020,06,01,13,51,16.50
2020,06,01,13,52,16.70
2020,06,01,13,53,16.80
2020,06,01,13,54,16.70
2020,06,01,13,55,16.70
2020,06,01,13,56,16.70
2020,06,01,13,57,16.60
2020,06,01,13,58,16.50
2020,06,01,13,59,16.40
2020,06,01,14,00,16.40
2020,06,01,14,01,16.40
2020,06,01,14,02,16.50
2020,06,01,14,03,16.60
2020,06,01,14,04,16.80
2020,06,01,14,05,16.90
2020,06,01,14,06,16.70
2020,06,01,14,07,16.70
2020,06,01,14,08,16.70
2020,06,01,14,09,16.70
2020,06,01,14,10,16.60
2020,06,01,14,11,16.60
2020,06,01,14,12,16.60
2020,06,01,14,13,16.70
2020,06,01,14,14,16.70
2020,06,01,14,15,16.70
2020,06,01,14,16,16.70
2020,06,01,14,17,16.80
2020,06,01,14,18,16.90
2020,06,01,14,19,16.90
2020,06,01,14,20,16.90
2020,06,01,14,21,16.90
2020,06,01,14,22,16.90
2020,06,01,14,23,17.00
2020,06,01,14,24,17.10
2020,06,01,14,25,17.10
2020,06,01,14,26,17.20
2020,06,01,14,27,17.20
2020,06,01,14,28,17.20
2020,06,01,14,29,17.20
2020,06,01,14,30,17.20
2020,06,01,14,31,17.30
2020,06,01,14,32,17.30
2020,06,01,14,33,17.30
2020,06,01,14,34,17.30
2020,06,01,14,35,17.30
2020,06,01,14,36,17.20
2020,06,01,14,37,17.20
2020,06,01,14,38,17.20
2020,06,01,14,39,17.20
2020,06,01,14,40,17.20
2020,06,01,14,41,17.20
2020,06,01,14,42,17.10
2020,06,01,14,43,17.00
2020,06,01,14,44,16.90
2020,06,01,14,45,16.80
2020,06,01,14,46,16.70
2020,06,01,14,47,16.70
2020,06,01,14,48,16.70
2020,06,01,14,49,16.90
2020,06,01,14,50,16.90
2020,06,01,14,51,16.80
2020,06,01,14,52,16.90
2020,06,01,14,53,16.90
2020,06,01,14,54,16.80
2020,06,01,14,55,16.90
2020,06,01,14,56,16.90
2020,06,01,14,57,17.00
2020,06,01,14,58,16.80
2020,06,01,14,59,16.70
2020,06,01,15,00,16.60
2020,06,01,15,01,16.70
2020,06,01,15,02,16.60
2020,06,01,15,03,16.60
2020,06,01,15,04,16.60
2020,06,01,15,05,16.60
2020,06,01,15,06,16.60
2020,06,01,15,07,16.60
2020,06,01,15,08,16.70
2020,06,01,15,09,16.70
2020,06,01,15,10,16.70
2020,06,01,15,11,16.80
2020,06,01,15,12,16.80
2020,06,01,15,13,16.90
2020,06,01,15,14,17.00
2020,06,01,15,15,17.20
2020,06,01,15,16,17.30
2020,06,01,15,17,17.30
2020,06,01,15,18,17.40
2020,06,01,15,19,17.40
2020,06,01,15,20,17.50
2020,06,01,15,21,17.50
2020,06,01,15,22,17.40
2020,06,01,15,23,17.50
2020,06,01,15,24,17.50
2020,06,01,15,25,17.60
2020,06,01,15,26,17.60
2020,06,01,15,27,17.70
2020,06,01,15,28,17.60
2020,06,01,15,29,17.60
2020,06,01,15,30,17.50
2020,06,01,15,31,17.60
2020,06,01,15,32,17.60
2020,06,01,15,33,17.80
2020,06,01,15,34,17.90
2020,06,01,15,35,17.90
2020,06,01,15,36,17.70
2020,06,01,15,37,17.60
2020,06,01,15,38,17.50
2020,06,01,15,39,17.50
2020,06,01,15,40,17.60
2020,06,01,15,41,17.60
2020,06,01,15,42,17.50
2020,06,01,15,43,17.40
2020,06,01,15,44,17.30
2020,06,01,15,45,17.20
2020,06,01,15,46,17.20
2020,06,01,15,47,17.20
2020,06,01,15,48,17.30
2020,06,01,15,49,17.30
2020,06,01,15,50,17.40
2020,06,01,15,51,17.50
2020,06,01,15,52,17.70
2020,06,01,15,53,17.80
2020,06,01,15,54,17.80
2020,06,01,15,55,17.70
2020,06,01,15,56,17.70
2020,06,01,15,57,17.70
2020,06,01,15,58,17.70
2020,06,01,15,59,17.80
2020,06,01,16,00,17.70
2020,06,01,16,01,17.60
2020,06,01,16,02,17.60
2020,06,01,16,03,17.60
2020,06,01,16,04,17.60
2020,06,01,16,05,17.50
2020,06,01,16,06,17.40
2020,06,01,16,07,17.30
2020,06,01,16,08,17.30
2020,06,01,16,09,17.20
2020,06,01,16,10,17.20
2020,06,01,16,11,17.20
2020,06,01,16,12,17.30
2020,06,01,16,13,17.30
2020,06,01,16,14,17.30
2020,06,01,16,15,17.40
2020,06,01,16,16,17.40
2020,06,01,16,17,17.40
2020,06,01,16,18,17.50
2020,06,01,16,19,17.50
2020,06,01,16,20,17.50
2020,06,01,16,21,17.50
2020,06,01,16,22,17.40
2020,06,01,16,23,17.30
2020,06,01,16,24,17.30
2020,06,01,16,25,17.30
2020,06,01,16,26,17.30
2020,06,01,16,27,17.20
2020,06,01,16,28,17.20
2020,06,01,16,29,17.10
2020,06,01,16,30,17.10
2020,06,01,16,31,17.10
2020,06,01,16,32,17.20
2020,06,01,16,33,17.20
2020,06,01,16,34,17.30
2020,06,01,16,35,17.30
2020,06,01,16,36,17.30
2020,06,01,16,37,17.30
2020,06,01,16,38,17.30
2020,06,01,16,39,17.20
2020,06,01,16,40,17.20
2020,06,01,16,41,17.20
2020,06,01,16,42,17.30
2020,06,01,16,43,17.40
2020,06,01,16,44,17.40
2020,06,01,16,45,17.40
2020,06,01,16,46,17.30
2020,06,01,16,47,17.30
2020,06,01,16,48,17.40
2020,06,01,16,49,17.50
2020,06,01,16,50,17.50
2020,06,01,16,51,17.50
2020,06,01,16,52,17.50
2020,06,01,16,53,17.50
2020,06,01,16,54,17.50
2020,06,01,16,55,17.40
2020,06,01,16,56,17.40
2020,06,01,16,57,17.40
2020,06,01,16,58,17.50
2020,06,01,16,59,17.50
2020,06,01,17,00,17.50
2020,06,01,17,01,17.50
2020,06,01,17,02,17.50
2020,06,01,17,03,17.50
2020,06,01,17,04,17.50
2020,06,01,17,05,17.60
2020,06,01,17,06,17.60
2020,06,01,17,07,17.60
2020,06,01,17,08,17.50
2020,06,01,17,09,17.50
2020,06,01,17,10,17.40
2020,06,01,17,11,17.40
2020,06,01,17,12,17.30
2020,06,01,17,13,17.30
2020,06,01,17,14,17.30
2020,06,01,17,15,17.30
2020,06,01,17,16,17.30
2020,06,01,17,17,17.40
2020,06,01,17,18,17.40
2020,06,01,17,19,17.40
2020,06,01,17,20,17.40
2020,06,01,17,21,17.40
2020,06,01,17,22,17.40
2020,06,01,17,23,17.40
2020,06,01,17,24,17.40
2020,06,01,17,25,17.40
2020,06,01,17,26,17.40
2020,06,01,17,27,17.30
2020,06,01,17,28,17.50
2020,06,01,17,29,17.50
2020,06,01,17,30,17.50
2020,06,01,17,31,17.50
2020,06,01,17,32,17.40
2020,06,01,17,33,17.40
2020,06,01,17,34,17.30
2020,06,01,17,35,17.30
2020,06,01,17,36,17.30
2020,06,01,17,37,17.30